Weather History for Oakland, MD

Change the Weather History Date:

Sunday, March 3, 2013

  Actual Average (KMGW) Record (KMGW)
Temperature  
Mean Temperature 18 °F 38 °F  
Max Temperature 21 °F 47 °F 75 °F (1974)
Min Temperature 15 °F 28 °F 4 °F (2014)
Degree Days  
Heating Degree Days 47 27  
Month to date heating degree days 82  
Since 1 July heating degree days 3971  
Cooling Degree Days 0 0  
Month to date cooling degree days 0  
Year to date cooling degree days 0  
Moisture  
Dew Point 18 °F    
Average Humidity 98    
Maximum Humidity 100    
Minimum Humidity 80    
Precipitation  
Precipitation 0.00 in 0.11 in 0.79 in (1971)
Month to date precipitation 0.32  
Year to date precipitation 5.73  
Sea Level Pressure  
Sea Level Pressure 29.78 in    
Wind  
Wind Speed 5 mph (WNW)    
Max Wind Speed 12 mph    
Max Gust Speed 21 mph    
Visibility 2 miles    
Events      
T = Trace of Precipitation, MM = Missing Value Source: NWS Daily Summary

Daily Weather History Graph

Daily Weather History Graph

Search for Another Location

Airport:

Trip Planner

Search our weather history database for the weather conditions in past years. The results will help you decide how hot, cold, wet, or windy it might be!

Date:

Astronomy

Mar. 03, 2013 Rise Set
Actual Time 6:47 AM EST 6:12 PM EST
Civil Twilight 6:20 AM EST 6:38 PM EST
Nautical Twilight 5:48 AM EST 7:10 PM EST
Astronomical Twilight 5:17 AM EST 7:41 PM EST
Moon No Moon Rise 10:02 AM EST (3/3)
Length of Visible Light 12h 18m
Length of Day
11h 24m
Waning Gibbous, 64% of the Moon is Illuminated
Mar 3
Waning Gibbous
Mar 4
Last Quarter
Mar 11
New
Mar 19
First Quarter
Mar 27
Full

Hourly Weather History & Observations

Time (EST) Temp. Windchill Dew Point Humidity Pressure Visibility Wind Dir Wind Speed Gust Speed Precip Events Conditions
12:15 AM 19.4 °F 12.8 °F 19.4 °F 100% 29.77 in 2.5 mi West 4.6 mph - N/A   Overcast
12:35 AM 19.4 °F 11.5 °F 19.4 °F 100% 29.77 in 3.0 mi West 5.8 mph - N/A   Overcast
12:55 AM 19.4 °F 12.8 °F 19.4 °F 100% 29.77 in 4.0 mi WNW 4.6 mph - N/A   Overcast
1:15 AM 19.4 °F 14.3 °F 19.4 °F 100% 29.77 in 3.0 mi West 3.5 mph - N/A   Overcast
1:35 AM 19.4 °F 12.8 °F 19.4 °F 100% 29.77 in 3.0 mi West 4.6 mph - N/A   Overcast
1:55 AM 19.4 °F 12.8 °F 19.4 °F 100% 29.77 in 2.5 mi West 4.6 mph - N/A   Overcast
2:15 AM 19.4 °F 11.5 °F 19.4 °F 100% 29.77 in 2.0 mi West 5.8 mph - N/A   Overcast
2:35 AM 19.4 °F 12.8 °F 19.4 °F 100% 29.76 in 2.0 mi West 4.6 mph - N/A   Overcast
2:55 AM 19.4 °F 12.8 °F 19.4 °F 100% 29.75 in 2.5 mi West 4.6 mph - N/A   Overcast
3:15 AM 19.4 °F 12.8 °F 19.4 °F 100% 29.75 in 2.0 mi West 4.6 mph - N/A   Overcast
3:35 AM 19.4 °F 11.5 °F 19.4 °F 100% 29.75 in 2.5 mi WNW 5.8 mph - N/A   Overcast
3:55 AM 19.4 °F 12.8 °F 19.4 °F 100% 29.75 in 2.0 mi WNW 4.6 mph - N/A   Overcast
4:15 AM 19.4 °F 14.3 °F 19.4 °F 100% 29.75 in 1.5 mi WNW 3.5 mph - N/A   Overcast
4:35 AM 19.4 °F 12.8 °F 19.4 °F 100% 29.76 in 3.0 mi WNW 4.6 mph - N/A   Overcast
4:55 AM 19.4 °F 11.5 °F 19.4 °F 100% 29.76 in 2.0 mi WNW 5.8 mph - N/A   Overcast
5:10 AM 19.4 °F 12.8 °F 19.4 °F 100% 29.76 in 4.0 mi WNW 4.6 mph - N/A   Overcast
5:35 AM 19.4 °F 10.4 °F 19.4 °F 100% 29.76 in 2.0 mi WNW 6.9 mph - N/A   Overcast
5:55 AM 17.6 °F 9.3 °F 17.6 °F 100% 29.76 in 3.0 mi WNW 5.8 mph - N/A   Overcast
6:15 AM 17.6 °F 10.7 °F 17.6 °F 100% 29.76 in 3.0 mi WNW 4.6 mph - N/A   Overcast
6:35 AM 17.6 °F 10.7 °F 17.6 °F 100% 29.76 in 2.0 mi WNW 4.6 mph - N/A   Overcast
6:55 AM 17.6 °F 10.7 °F 17.6 °F 100% 29.76 in 0.8 mi WNW 4.6 mph - N/A   Overcast
7:15 AM 17.6 °F 7.3 °F 17.6 °F 100% 29.76 in 1.0 mi West 8.1 mph - N/A   Overcast
7:35 AM 17.6 °F 9.3 °F 17.6 °F 100% 29.76 in 0.8 mi West 5.8 mph - N/A   Overcast
7:55 AM 17.6 °F 10.7 °F 17.6 °F 100% 29.78 in 0.8 mi WNW 4.6 mph - N/A   Overcast
8:15 AM 17.6 °F 8.2 °F 17.6 °F 100% 29.78 in 0.8 mi WNW 6.9 mph - N/A   Overcast
8:35 AM 17.6 °F 9.3 °F 17.6 °F 100% 29.78 in 1.2 mi WNW 5.8 mph - N/A   Overcast
8:55 AM 17.6 °F 10.7 °F 17.6 °F 100% 29.78 in 1.0 mi WNW 4.6 mph - N/A   Overcast
9:15 AM 17.6 °F 10.7 °F 17.6 °F 100% 29.78 in 1.0 mi WNW 4.6 mph - N/A   Overcast
9:35 AM 17.6 °F 10.7 °F 17.6 °F 100% 29.78 in 1.8 mi West 4.6 mph - N/A   Overcast
9:55 AM 17.6 °F 9.3 °F 17.6 °F 100% 29.78 in 1.5 mi WNW 5.8 mph - N/A   Overcast
10:15 AM 17.6 °F 9.3 °F 17.6 °F 100% 29.78 in 1.8 mi WNW 5.8 mph - N/A   Overcast
10:55 AM 19.4 °F 12.8 °F 19.4 °F 100% 29.78 in 2.0 mi West 4.6 mph - N/A   Overcast
11:15 AM 19.4 °F 11.5 °F 19.4 °F 100% 29.79 in 1.5 mi West 5.8 mph - N/A   Overcast
11:55 AM 19.4 °F 12.8 °F 19.4 °F 100% 29.79 in 1.5 mi West 4.6 mph - N/A   Overcast
12:15 PM 21.2 °F 12.6 °F 17.6 °F 86% 29.78 in 2.5 mi West 6.9 mph - N/A   Overcast
12:35 PM 21.2 °F 14.9 °F 17.6 °F 86% 29.78 in 2.5 mi West 4.6 mph - N/A   Overcast
12:55 PM 19.4 °F 11.5 °F 17.6 °F 93% 29.77 in 1.8 mi West 5.8 mph - N/A   Overcast
1:15 PM 21.2 °F 12.6 °F 17.6 °F 86% 29.77 in 2.5 mi West 6.9 mph - N/A   Overcast
1:35 PM 21.2 °F 13.6 °F 17.6 °F 86% 29.76 in 2.5 mi West 5.8 mph - N/A   Overcast
1:55 PM 21.2 °F 14.9 °F 15.8 °F 80% 29.76 in 7.0 mi West 4.6 mph - N/A   Overcast
2:15 PM 21.2 °F 13.6 °F 17.6 °F 86% 29.76 in 4.0 mi West 5.8 mph - N/A   Overcast
2:35 PM 21.2 °F 13.6 °F 17.6 °F 86% 29.76 in 2.5 mi West 5.8 mph - N/A   Overcast
2:55 PM 21.2 °F 14.9 °F 17.6 °F 86% 29.76 in 5.0 mi West 4.6 mph - N/A   Overcast
3:15 PM 21.2 °F 13.6 °F 17.6 °F 86% 29.77 in 3.0 mi West 5.8 mph - N/A   Overcast
4:15 PM 21.2 °F 12.6 °F 17.6 °F 86% 29.77 in 7.0 mi West 6.9 mph - N/A   Overcast
4:55 PM 19.4 °F 14.3 °F 19.4 °F 100% 29.78 in 1.5 mi WNW 3.5 mph - N/A   Overcast
5:35 PM 19.4 °F 12.8 °F 19.4 °F 100% 29.78 in 1.5 mi WNW 4.6 mph - N/A   Overcast
5:55 PM 19.4 °F 12.8 °F 19.4 °F 100% 29.79 in 1.2 mi WNW 4.6 mph - N/A   Overcast
6:15 PM 19.4 °F 12.8 °F 19.4 °F 100% 29.79 in 2.0 mi WNW 4.6 mph - N/A   Overcast
6:35 PM 19.4 °F 12.8 °F 19.4 °F 100% 29.79 in 3.0 mi West 4.6 mph - N/A   Overcast
6:55 PM 17.6 °F 12.3 °F 17.6 °F 100% 29.80 in 1.8 mi WNW 3.5 mph - N/A   Overcast
7:15 PM 17.6 °F 10.7 °F 17.6 °F 100% 29.81 in 3.0 mi WNW 4.6 mph - N/A   Overcast
7:35 PM 17.6 °F 9.3 °F 17.6 °F 100% 29.82 in 3.0 mi WNW 5.8 mph - N/A   Overcast
7:55 PM 17.6 °F 12.3 °F 17.6 °F 100% 29.82 in 3.0 mi WNW 3.5 mph - N/A   Overcast
8:15 PM 17.6 °F 10.7 °F 17.6 °F 100% 29.83 in 5.0 mi West 4.6 mph - N/A   Overcast
8:35 PM 17.6 °F 10.7 °F 17.6 °F 100% 29.83 in 4.0 mi West 4.6 mph - N/A   Overcast
8:55 PM 17.6 °F 10.7 °F 17.6 °F 100% 29.83 in 5.0 mi West 4.6 mph - N/A   Overcast
9:35 PM 17.6 °F 6.4 °F 17.6 °F 100% 29.83 in 2.5 mi West 9.2 mph 20.7 mph N/A   Overcast
9:55 PM 17.6 °F 5.0 °F 17.6 °F 100% 29.83 in 3.0 mi WNW 11.5 mph 18.4 mph N/A   Overcast
10:15 PM 17.6 °F 7.3 °F 17.6 °F 100% 29.83 in 1.5 mi WNW 8.1 mph 20.7 mph N/A   Overcast
10:35 PM 17.6 °F 5.7 °F 17.6 °F 100% 29.83 in 3.0 mi West 10.4 mph 17.3 mph N/A   Overcast
11:15 PM 15.8 °F 2.7 °F 15.8 °F 100% 29.83 in 3.0 mi West 11.5 mph 17.3 mph N/A   Overcast
11:35 PM 15.8 °F 4.2 °F 15.8 °F 100% 29.83 in 3.0 mi West 9.2 mph 18.4 mph N/A   Overcast
11:55 PM 15.8 °F 2.7 °F 15.8 °F 100% 29.83 in 3.0 mi West 11.5 mph 19.6 mph N/A   Overcast